DELTA 1 DEB, 2118

Orbit data source: Space-Track

DELTA 1 DEB, 2118 is space debris in SSO originally from a launch on Thu, 03 Feb 1966 UTC launched from the Air Force Eastern Test Range (AFETR). Debris objects in space refer to the collection of defunct objects orbiting the Earth. Examples of debris include non-operational satellites, rocket bodies, and fragments generated from explosions, collisions, or faulty payload assembly.

Loading next visibility...
Identifier
2118, 1966-008D
Orbit
SSO
Country
Flag of USUS
Related business
Manufacturer
Unknown
Mission
Spacecraft
Bus & Motor
Unknown
Mass
~1 kg wet, ~1 kg dry
Launch date (UTC)
1966-02-03 (60 years ago)
Launch vehicle
Unknown
Launch site
Air Force Eastern Test Range (AFETR)
Object type
Payload
Rocket body
Debris
Shape & HBR
Unknown
Radar Cross Section
Small (<0.1 m²)

Expand to show TLE details & history
Last TLE update: 2 days ago

TLE from 2 days ago
0 DELTA 1 DEB
1 02118U 66008D   26060.83888123  .00001335  00000-0  34566-3 0  9996
2 02118  98.0400 198.1932 0125980 191.5782 168.2508 14.46755124120301
Epoch: 2026-03-01T20:07Z
TLE epoch observation values (Epoch: 2026-03-01T20:07:59.338Z)
Latitude
-0.00001°
Longitude
96.55507°
Altitude
827.052 km
Speed
7.393 km/s
True Right ascension
13h 12m 46s
True Declination
0° 00' 00"
Sunlit
Object was in full shadow at epoch
Visualization orbit readout
Latitude
Unknown
Longitude
Unknown
Altitude
Unknown
Speed
Unknown
Apparent Right ascension
Unknown
Apparent Declination
Unknown
Sunlit
N/A
Visualization observer readout
Local Sidereal Time
22:59:52
Azimuth
Unknown
Elevation
Unknown
Doppler factor
Unknown
Orbital elements
Apogee altitude
822.948 km
Perigee altitude
643.767 km
Semi-major axis
7,111.494 km
Eccentricity
0.0126
Inclination
98.04°
RAAN
198.1932°
Arg. of periapsis
191.5782°
True anomaly
168.5403°
Mean anomaly
168.2508°
Eccentric anomaly
168.39599°
Mean motion
3.61911 °/min
Orbital period
99.47 mins
BSTAR
0.00034566
Loading maneuver chart data...
Computing Atmospheric mass density...
Loading historical data...
Loading historical data...
Loading historical data...
Loading historical data...
Loading historical data...
Loading historical data...
Loading historical data...
Other satellites on launch #8 in the year 1966 (1966-02-03 UTC)

Documentation

Showing up to 5 results
|